Weather in Sukhmen

Russia / Kurgan Oblast     54°52′28″N   66°35′09″E
temp.,
°C
wind,
m/s
gust,
m/s
humid.,
%
clouds,
%
prec.,
mm/h
press.,
hPa
HPBL,
m
11 april, sun
sun1123:00+1sse36955 0.0 1040105
02:00−1sse23925 0.0 104046
05:00−1sse33905 0.0 104157
08:00+2sse35805 0.0 1041163
11:00+6s45645 0.0 1040347
14:00+8s46595 0.0 1039432
17:00+7s477079 0.0 1038303
20:00+3s4679100 0.0 103877
12 april, mon
mon1223:00+2ssw4782100 0.0 103798
02:00+2sw488399 0.0 1037118
05:00+1sw477931 0.0 1037109
08:00+4wsw487169 0.0 1037198
11:00+9w466466 0.0 1036361
14:00+12wnw446798 0.0 1036567
17:00+12nnw3577100 0.0 1035721
20:00+10n3692100 0.0 1037187
13 april, tue
tue1323:00+8ne3593100 0.0 1037143
02:00+6ne3489100 0.0 103887
05:00+5ene348995 0.0 103956
08:00+7e34832 0.0 1040184
11:00+11ese33665 0.0 1040680
14:00+13se33524 0.0 10391024
17:00+13sse23490 0.0 10371026
20:00+10s22660 0.0 103618
14 april, wed
wed1423:00+8ssw33750 0.0 103633
02:00+6ssw33780 0.0 103527
05:00+5ssw33815 0.0 103433
08:00+7ssw34755 0.0 1033140
11:00+12sw34602 0.0 1032548
14:00+15sw44475 0.0 1030893
17:00+15sw34445 0.0 1027900
20:00+11sw33595 0.0 102620
15 april, thu
thu1523:00+9sw33640 0.0 102540
02:00+7sw33665 0.0 102429
05:00+6wsw33675 0.0 102323
08:00+9wsw24635 0.0 1022123
11:00+14wsw335127 0.0 1021464
14:00+17wsw33471 0.0 1019963
17:00+17w23460 0.0 10171189
20:00+13sw22610 0.0 101610